Eastover, SC

7:05 AM EDT on September 25, 2017 (GMT -0400)
McEntire Angs

Weather History for KMMT - July, 2013

Change the Weather History Date:

Monday, July 1, 2013

  Actual Average Record
Temperature  
Mean Temperature 75 °F -  
Max Temperature 82 °F 88 °F 103 °F (2012)
Min Temperature 68 °F 71 °F 62 °F (2008)
Cooling Degree Days 10    
Growing Degree Days 25 (Base 50)    
Moisture  
Dew Point 72 °F    
Average Humidity 92    
Maximum Humidity 100    
Minimum Humidity 65    
Precipitation  
Precipitation 1.42 in - - ()
Sea Level Pressure  
Sea Level Pressure 29.92 in    
Wind  
Wind Speed 4 mph (SE)    
Max Wind Speed 10 mph    
Max Gust Speed -    
Visibility 8 miles    
Events Rain , Thunderstorm    
Averages and records for this station are not official NWS values.
T = Trace of Precipitation, MM = Missing Value Source: NWS Daily Summary

Daily Weather History Graph

Daily Weather History Graph

Search for Another Location

Airport or City:

Trip Planner

Search our weather history database for the weather conditions in past years. The results will help you decide how hot, cold, wet, or windy it might be!

Date:

Astronomy

Jul. 01, 2013 Rise Set
Actual Time 6:15 AM EDT 8:38 PM EDT
Civil Twilight 5:46 AM EDT 9:07 PM EDT
Nautical Twilight 5:11 AM EDT 9:42 PM EDT
Astronomical Twilight 4:32 AM EDT 10:21 PM EDT
Moon 1:34 AM EDT (7/1) 3:00 PM EDT (7/1)
Length of Visible Light 15h 20m
Length of Day
14h 22m
Waning Crescent, 35% of the Moon is Illuminated
Jul 1
Waning Crescent
Jul 8
New
Jul 15
First Quarter
Jul 22
Full
Jul 29
Last Quarter

Hourly Weather History & Observations

Time (EDT) Temp. Heat Index Dew Point Humidity Pressure Visibility Wind Dir Wind Speed Gust Speed Precip Events Conditions
6:37 AM 69.8 °F - 69.8 °F 100% 29.88 in 1.2 mi SE 5.8 mph - N/A Rain Heavy Rain
6:55 AM 68.7 °F - 68.5 °F 99% 29.88 in 6.0 mi ESE 5.8 mph - 0.47 in Rain Light Rain
7:46 AM 69.8 °F - 69.8 °F 100% 29.89 in 10.0 mi ESE 3.5 mph - N/A   Overcast
7:55 AM 69.6 °F - 69.6 °F 100% 29.89 in 10.0 mi East 4.6 mph - 0.00 in   Overcast
8:25 AM 69.8 °F - 69.8 °F 100% 29.90 in 10.0 mi East 3.5 mph - N/A   Overcast
8:48 AM 69.8 °F - 69.8 °F 100% 29.90 in 10.0 mi ESE 4.6 mph - N/A   Mostly Cloudy
8:55 AM 71.2 °F - 71.2 °F 100% 29.91 in 10.0 mi ESE 4.6 mph - N/A   Mostly Cloudy
9:18 AM 71.6 °F - 71.6 °F 100% 29.91 in 10.0 mi SE 5.8 mph - N/A   Mostly Cloudy
9:29 AM 73.4 °F - 71.6 °F 94% 29.91 in 10.0 mi SE 4.6 mph - N/A   Overcast
9:43 AM 73.4 °F - 71.6 °F 94% 29.92 in 10.0 mi Variable 3.5 mph - N/A   Overcast
9:55 AM 72.7 °F - 70.9 °F 94% 29.92 in 10.0 mi SE 3.5 mph - N/A   Overcast
10:11 AM 73.4 °F - 71.6 °F 94% 29.92 in 10.0 mi SE 4.6 mph - N/A   Overcast
10:25 AM 73.4 °F - 69.8 °F 88% 29.92 in 10.0 mi SE 3.5 mph - N/A   Overcast
10:37 AM 73.4 °F - 69.8 °F 88% 29.92 in 10.0 mi Calm Calm - N/A   Overcast
10:55 AM 73.8 °F - 71.2 °F 92% 29.92 in 10.0 mi Calm Calm - N/A   Overcast
11:13 AM 73.4 °F - 71.6 °F 94% 29.93 in 10.0 mi Calm Calm - N/A   Overcast
11:35 AM 75.2 °F - 71.6 °F 89% 29.93 in 10.0 mi Variable 3.5 mph - N/A   Overcast
11:55 AM 76.1 °F - 71.2 °F 85% 29.92 in 10.0 mi Variable 3.5 mph - N/A   Mostly Cloudy
12:09 PM 77.0 °F - 71.6 °F 83% 29.92 in 10.0 mi WSW 6.9 mph - N/A   Mostly Cloudy
12:55 PM 79.7 °F - 71.2 °F 75% 29.93 in 10.0 mi South 4.6 mph - N/A   Mostly Cloudy
1:55 PM 82.4 °F 87.0 °F 71.4 °F 69% 29.92 in 10.0 mi South 4.6 mph - N/A   Mostly Cloudy
2:55 PM 82.9 °F 87.0 °F 70.0 °F 65% 29.90 in 10.0 mi Variable 3.5 mph - N/A   Mostly Cloudy
3:55 PM 82.4 °F 86.3 °F 69.8 °F 66% 29.90 in 10.0 mi SSW 3.5 mph - N/A   Mostly Cloudy
4:18 PM 80.6 °F 84.6 °F 71.6 °F 74% 29.90 in 10.0 mi Calm Calm - N/A Rain , Thunderstorm Light Rain Showers
4:30 PM 80.6 °F 84.6 °F 71.6 °F 74% 29.90 in 10.0 mi WSW 3.5 mph - N/A Rain , Thunderstorm Light Thunderstorms and Rain
4:55 PM 77.0 °F - 73.4 °F 89% 29.92 in 3.0 mi SE 4.6 mph - 0.05 in Rain , Thunderstorm Thunderstorms and Rain
5:02 PM 75.2 °F - 73.4 °F 94% 29.93 in 1.0 mi South 5.8 mph - N/A Rain Heavy Rain Showers
5:23 PM 73.4 °F - 71.6 °F 94% 29.93 in 0.5 mi South 5.8 mph - N/A Rain Heavy Rain Showers
5:29 PM 73.4 °F - 71.6 °F 94% 29.93 in 0.8 mi Calm Calm - N/A Rain Light Rain Showers
5:33 PM 73.4 °F - 71.6 °F 94% 29.93 in 1.5 mi Calm Calm - N/A Rain Light Rain Showers
5:37 PM 73.4 °F - 71.6 °F 94% 29.93 in 3.0 mi Variable 3.5 mph - N/A Rain Light Rain Showers
5:44 PM 73.4 °F - 73.4 °F 100% 29.93 in 10.0 mi East 4.6 mph - N/A   Overcast
5:55 PM 73.6 °F - 73.6 °F 100% 29.93 in 10.0 mi East 3.5 mph - 0.90 in   Overcast
6:55 PM 74.8 °F - 74.8 °F 100% 29.92 in 10.0 mi ESE 9.2 mph - N/A   Mostly Cloudy
7:55 PM 73.9 °F - 73.9 °F 100% 29.94 in 10.0 mi ESE 9.2 mph - N/A   Mostly Cloudy
8:55 PM 73.4 °F - 73.4 °F 100% 29.97 in 10.0 mi SSE 4.6 mph - N/A   Overcast
9:52 PM 73.4 °F - 73.4 °F 100% 29.98 in 10.0 mi ESE 6.9 mph - N/A   Overcast
9:55 PM 73.4 °F - 73.4 °F 100% 29.99 in 10.0 mi ESE 6.9 mph - N/A   Overcast
10:25 PM 73.4 °F - 73.4 °F 100% 29.99 in 10.0 mi SE 10.4 mph - N/A   Overcast
10:55 PM 73.4 °F - 71.6 °F 94% 30.00 in 10.0 mi SSE 5.8 mph - N/A   Overcast